owner,sensor,date,latitude,longitude,relative_humidity,qcFlag 
COMPS,ioos:station:USF.COMPS:C10:1,2015-07-01T00:25:00Z,27.1690,-82.9260,70.53,1111122 
COMPS,ioos:station:USF.COMPS:C10:1,2015-07-01T00:55:00Z,27.1690,-82.9260,72.4,1111122 
COMPS,ioos:station:USF.COMPS:C10:1,2015-07-01T06:25:00Z,27.1690,-82.9260,77.07,1111122 
COMPS,ioos:station:USF.COMPS:C10:1,2015-07-01T06:55:00Z,27.1690,-82.9260,76.95,1111122 
COMPS,ioos:station:USF.COMPS:C10:1,2015-07-01T07:25:00Z,27.1690,-82.9260,75.8,1111122 
COMPS,ioos:station:USF.COMPS:C10:1,2015-07-01T07:55:00Z,27.1690,-82.9260,75.34,1111122 
COMPS,ioos:station:USF.COMPS:C10:1,2015-07-01T08:25:00Z,27.1690,-82.9260,73.59,1111122 
COMPS,ioos:station:USF.COMPS:C10:1,2015-07-01T08:55:00Z,27.1690,-82.9260,72.92,1111122 
COMPS,ioos:station:USF.COMPS:C10:1,2015-07-01T09:25:00Z,27.1690,-82.9260,73.74,1111122 
COMPS,ioos:station:USF.COMPS:C10:1,2015-07-01T09:55:00Z,27.1690,-82.9260,74.39,1111122 
COMPS,ioos:station:USF.COMPS:C10:1,2015-07-01T15:25:00Z,27.1690,-82.9260,72.56,1111122 
COMPS,ioos:station:USF.COMPS:C10:1,2015-07-01T15:55:00Z,27.1690,-82.9260,67.8,1111122 
COMPS,ioos:station:USF.COMPS:C10:1,2015-07-01T16:25:00Z,27.1690,-82.9260,69.35,1111122 
COMPS,ioos:station:USF.COMPS:C10:1,2015-07-01T16:55:00Z,27.1690,-82.9260,64.84,1111122 
COMPS,ioos:station:USF.COMPS:C10:1,2015-07-01T17:25:00Z,27.1690,-82.9260,66.02,1111122 
COMPS,ioos:station:USF.COMPS:C10:1,2015-07-01T17:55:00Z,27.1690,-82.9260,70.22,1111122 
COMPS,ioos:station:USF.COMPS:C10:1,2015-07-01T18:25:00Z,27.1690,-82.9260,70.71,1111122 
COMPS,ioos:station:USF.COMPS:C10:1,2015-07-01T18:55:00Z,27.1690,-82.9260,71.05,1111122 
COMPS,ioos:station:USF.COMPS:C10:1,2015-07-01T22:25:00Z,27.1690,-82.9260,60.78,1111122 
COMPS,ioos:station:USF.COMPS:C10:1,2015-07-01T22:55:00Z,27.1690,-82.9260,61.19,1111122 
COMPS,ioos:station:USF.COMPS:C10:1,2015-07-01T23:25:00Z,27.1690,-82.9260,58.49,1111122 
COMPS,ioos:station:USF.COMPS:C10:1,2015-07-01T23:55:00Z,27.1690,-82.9260,58.08,1111122 
COMPS,ioos:station:USF.COMPS:C10:1,2015-07-02T00:25:00Z,27.1690,-82.9260,63.41,1111122 
COMPS,ioos:station:USF.COMPS:C10:1,2015-07-02T00:55:00Z,27.1690,-82.9260,63.3,1111122 
COMPS,ioos:station:USF.COMPS:C10:1,2015-07-02T06:25:00Z,27.1690,-82.9260,68.41,1111122 
COMPS,ioos:station:USF.COMPS:C10:1,2015-07-02T06:55:00Z,27.1690,-82.9260,68.12,1111122 
COMPS,ioos:station:USF.COMPS:C10:1,2015-07-02T07:25:00Z,27.1690,-82.9260,68.41,1111122 
COMPS,ioos:station:USF.COMPS:C10:1,2015-07-02T07:55:00Z,27.1690,-82.9260,73.44,1111122 
COMPS,ioos:station:USF.COMPS:C10:1,2015-07-02T08:25:00Z,27.1690,-82.9260,73.37,1111122 
COMPS,ioos:station:USF.COMPS:C10:1,2015-07-02T08:55:00Z,27.1690,-82.9260,72.24,1111122 
COMPS,ioos:station:USF.COMPS:C10:1,2015-07-02T09:25:00Z,27.1690,-82.9260,73.71,1111122 
COMPS,ioos:station:USF.COMPS:C10:1,2015-07-02T09:55:00Z,27.1690,-82.9260,69.59,1111122 
COMPS,ioos:station:USF.COMPS:C10:1,2015-07-02T16:25:00Z,27.1690,-82.9260,67.02,1111122 
COMPS,ioos:station:USF.COMPS:C10:1,2015-07-02T16:55:00Z,27.1690,-82.9260,66.69,1111122 
COMPS,ioos:station:USF.COMPS:C10:1,2015-07-02T17:25:00Z,27.1690,-82.9260,69.85,1111122 
COMPS,ioos:station:USF.COMPS:C10:1,2015-07-02T17:55:00Z,27.1690,-82.9260,71.97,1111122 
COMPS,ioos:station:USF.COMPS:C10:1,2015-07-02T18:25:00Z,27.1690,-82.9260,69.57,1111122 
COMPS,ioos:station:USF.COMPS:C10:1,2015-07-02T18:55:00Z,27.1690,-82.9260,67.68,1111122 
COMPS,ioos:station:USF.COMPS:C10:1,2015-07-03T00:25:00Z,27.1690,-82.9260,70.2,1111122 
COMPS,ioos:station:USF.COMPS:C10:1,2015-07-03T00:55:00Z,27.1690,-82.9260,68.31,1111122 
COMPS,ioos:station:USF.COMPS:C10:1,2015-07-03T01:25:00Z,27.1690,-82.9260,67.52,1111122 
COMPS,ioos:station:USF.COMPS:C10:1,2015-07-03T01:55:00Z,27.1690,-82.9260,70.1,1111122 
COMPS,ioos:station:USF.COMPS:C10:1,2015-07-03T02:25:00Z,27.1690,-82.9260,70.77,1111122 
COMPS,ioos:station:USF.COMPS:C10:1,2015-07-03T02:55:00Z,27.1690,-82.9260,70.16,1111122 
COMPS,ioos:station:USF.COMPS:C10:1,2015-07-03T03:25:00Z,27.1690,-82.9260,73.68,1111122 
COMPS,ioos:station:USF.COMPS:C10:1,2015-07-03T03:55:00Z,27.1690,-82.9260,69.98,1111122 
COMPS,ioos:station:USF.COMPS:C10:1,2015-07-03T09:25:00Z,27.1690,-82.9260,72.08,1111122 
COMPS,ioos:station:USF.COMPS:C10:1,2015-07-03T09:55:00Z,27.1690,-82.9260,72.81,1111122 
COMPS,ioos:station:USF.COMPS:C10:1,2015-07-03T10:25:00Z,27.1690,-82.9260,73.03,1111122 
COMPS,ioos:station:USF.COMPS:C10:1,2015-07-03T10:55:00Z,27.1690,-82.9260,73.65,1111122 
COMPS,ioos:station:USF.COMPS:C10:1,2015-07-03T11:25:00Z,27.1690,-82.9260,72.95,1111122 
COMPS,ioos:station:USF.COMPS:C10:1,2015-07-03T11:55:00Z,27.1690,-82.9260,71.68,1111122 
COMPS,ioos:station:USF.COMPS:C10:1,2015-07-03T12:25:00Z,27.1690,-82.9260,69.22,1111122 
COMPS,ioos:station:USF.COMPS:C10:1,2015-07-03T12:55:00Z,27.1690,-82.9260,67.65,1111122 
COMPS,ioos:station:USF.COMPS:C10:1,2015-07-03T18:25:00Z,27.1690,-82.9260,71.25,1111122 
COMPS,ioos:station:USF.COMPS:C10:1,2015-07-03T18:55:00Z,27.1690,-82.9260,72.2,1111122 
COMPS,ioos:station:USF.COMPS:C10:1,2015-07-03T19:25:00Z,27.1690,-82.9260,69.06,1111122 
COMPS,ioos:station:USF.COMPS:C10:1,2015-07-03T19:55:00Z,27.1690,-82.9260,69.74,1111122 
COMPS,ioos:station:USF.COMPS:C10:1,2015-07-03T20:25:00Z,27.1690,-82.9260,66.81,1111122 
COMPS,ioos:station:USF.COMPS:C10:1,2015-07-03T20:55:00Z,27.1690,-82.9260,67.36,1111122 
COMPS,ioos:station:USF.COMPS:C10:1,2015-07-03T21:25:00Z,27.1690,-82.9260,66.27,1111122 
COMPS,ioos:station:USF.COMPS:C10:1,2015-07-03T21:55:00Z,27.1690,-82.9260,65.24,1111122 
COMPS,ioos:station:USF.COMPS:C10:1,2015-07-04T03:55:00Z,27.1690,-82.9260,72.17,1111122 
COMPS,ioos:station:USF.COMPS:C10:1,2015-07-04T04:25:00Z,27.1690,-82.9260,72.42,1111122 
COMPS,ioos:station:USF.COMPS:C10:1,2015-07-04T04:55:00Z,27.1690,-82.9260,75.2,1111122 
COMPS,ioos:station:USF.COMPS:C10:1,2015-07-04T05:25:00Z,27.1690,-82.9260,73.43,1111122 
COMPS,ioos:station:USF.COMPS:C10:1,2015-07-04T05:55:00Z,27.1690,-82.9260,72.67,1111122 
COMPS,ioos:station:USF.COMPS:C10:1,2015-07-04T06:25:00Z,27.1690,-82.9260,69.76,1111122 
COMPS,ioos:station:USF.COMPS:C10:1,2015-07-04T06:55:00Z,27.1690,-82.9260,76.01,1111122 
COMPS,ioos:station:USF.COMPS:C10:1,2015-07-04T12:25:00Z,27.1690,-82.9260,73.88,1111122 
COMPS,ioos:station:USF.COMPS:C10:1,2015-07-04T12:55:00Z,27.1690,-82.9260,77.12,1111122 
COMPS,ioos:station:USF.COMPS:C10:1,2015-07-04T13:25:00Z,27.1690,-82.9260,76.48,1111122 
COMPS,ioos:station:USF.COMPS:C10:1,2015-07-04T13:55:00Z,27.1690,-82.9260,74.91,1111122 
COMPS,ioos:station:USF.COMPS:C10:1,2015-07-04T14:25:00Z,27.1690,-82.9260,78.44,1111122 
COMPS,ioos:station:USF.COMPS:C10:1,2015-07-04T14:55:00Z,27.1690,-82.9260,81.72,1111122 
COMPS,ioos:station:USF.COMPS:C10:1,2015-07-04T15:25:00Z,27.1690,-82.9260,79.25,1111122 
COMPS,ioos:station:USF.COMPS:C10:1,2015-07-04T15:55:00Z,27.1690,-82.9260,78.0,1111122 
COMPS,ioos:station:USF.COMPS:C10:1,2015-07-04T22:25:00Z,27.1690,-82.9260,66.11,1111122 
COMPS,ioos:station:USF.COMPS:C10:1,2015-07-04T22:55:00Z,27.1690,-82.9260,65.26,1111122 
COMPS,ioos:station:USF.COMPS:C10:1,2015-07-04T23:25:00Z,27.1690,-82.9260,65.58,1111122 
COMPS,ioos:station:USF.COMPS:C10:1,2015-07-05T00:25:00Z,27.1690,-82.9260,66.33,1111122 
COMPS,ioos:station:USF.COMPS:C10:1,2015-07-05T00:55:00Z,27.1690,-82.9260,68.56,1111122 
COMPS,ioos:station:USF.COMPS:C10:1,2015-07-05T06:25:00Z,27.1690,-82.9260,74.8,1111122 
COMPS,ioos:station:USF.COMPS:C10:1,2015-07-05T06:55:00Z,27.1690,-82.9260,74.78,1111122 
COMPS,ioos:station:USF.COMPS:C10:1,2015-07-05T07:25:00Z,27.1690,-82.9260,76.32,1111122 
COMPS,ioos:station:USF.COMPS:C10:1,2015-07-05T07:55:00Z,27.1690,-82.9260,77.09,1111122 
COMPS,ioos:station:USF.COMPS:C10:1,2015-07-05T08:25:00Z,27.1690,-82.9260,74.73,1111122 
COMPS,ioos:station:USF.COMPS:C10:1,2015-07-05T08:55:00Z,27.1690,-82.9260,75.53,1111122 
COMPS,ioos:station:USF.COMPS:C10:1,2015-07-05T09:25:00Z,27.1690,-82.9260,78.6,1111122 
COMPS,ioos:station:USF.COMPS:C10:1,2015-07-05T09:55:00Z,27.1690,-82.9260,78.24,1111122 
COMPS,ioos:station:USF.COMPS:C10:1,2015-07-05T15:25:00Z,27.1690,-82.9260,82.61,1111122 
COMPS,ioos:station:USF.COMPS:C10:1,2015-07-05T15:55:00Z,27.1690,-82.9260,80.91,1111122 
COMPS,ioos:station:USF.COMPS:C10:1,2015-07-05T16:25:00Z,27.1690,-82.9260,76.42,1111122 
COMPS,ioos:station:USF.COMPS:C10:1,2015-07-05T16:55:00Z,27.1690,-82.9260,73.76,1111122 
COMPS,ioos:station:USF.COMPS:C10:1,2015-07-05T17:25:00Z,27.1690,-82.9260,72.42,1111122 
COMPS,ioos:station:USF.COMPS:C10:1,2015-07-05T17:55:00Z,27.1690,-82.9260,72.07,1111122 
COMPS,ioos:station:USF.COMPS:C10:1,2015-07-05T18:25:00Z,27.1690,-82.9260,72.74,1111122 
COMPS,ioos:station:USF.COMPS:C10:1,2015-07-05T18:55:00Z,27.1690,-82.9260,72.5,1111122 
COMPS,ioos:station:USF.COMPS:C10:1,2015-07-06T00:25:00Z,27.1690,-82.9260,84.44,1111122 
COMPS,ioos:station:USF.COMPS:C10:1,2015-07-06T00:55:00Z,27.1690,-82.9260,79.02,1111122 
COMPS,ioos:station:USF.COMPS:C10:1,2015-07-06T01:25:00Z,27.1690,-82.9260,79.5,1111122 
COMPS,ioos:station:USF.COMPS:C10:1,2015-07-06T03:25:00Z,27.1690,-82.9260,83.34,1111122 
COMPS,ioos:station:USF.COMPS:C10:1,2015-07-06T03:55:00Z,27.1690,-82.9260,79.5,1111122 
COMPS,ioos:station:USF.COMPS:C10:1,2015-07-06T10:25:00Z,27.1690,-82.9260,75.84,1111122 
COMPS,ioos:station:USF.COMPS:C10:1,2015-07-06T10:55:00Z,27.1690,-82.9260,77.2,1111122 
COMPS,ioos:station:USF.COMPS:C10:1,2015-07-06T11:25:00Z,27.1690,-82.9260,73.33,1111122 
COMPS,ioos:station:USF.COMPS:C10:1,2015-07-06T11:55:00Z,27.1690,-82.9260,72.52,1111122 
COMPS,ioos:station:USF.COMPS:C10:1,2015-07-06T12:25:00Z,27.1690,-82.9260,71.77,1111122 
COMPS,ioos:station:USF.COMPS:C10:1,2015-07-06T12:55:00Z,27.1690,-82.9260,73.3,1111122 
COMPS,ioos:station:USF.COMPS:C10:1,2015-07-06T18:25:00Z,27.1690,-82.9260,76.24,1111122 
COMPS,ioos:station:USF.COMPS:C10:1,2015-07-06T18:55:00Z,27.1690,-82.9260,74.96,1111122 
COMPS,ioos:station:USF.COMPS:C10:1,2015-07-06T19:25:00Z,27.1690,-82.9260,73.96,1111122 
COMPS,ioos:station:USF.COMPS:C10:1,2015-07-06T19:55:00Z,27.1690,-82.9260,72.61,1111122 
COMPS,ioos:station:USF.COMPS:C10:1,2015-07-06T20:25:00Z,27.1690,-82.9260,71.3,1111122 
COMPS,ioos:station:USF.COMPS:C10:1,2015-07-06T20:55:00Z,27.1690,-82.9260,72.23,1111122 
COMPS,ioos:station:USF.COMPS:C10:1,2015-07-06T21:25:00Z,27.1690,-82.9260,71.98,1111122 
COMPS,ioos:station:USF.COMPS:C10:1,2015-07-06T21:55:00Z,27.1690,-82.9260,72.01,1111122 
COMPS,ioos:station:USF.COMPS:C10:1,2015-07-07T03:25:00Z,27.1690,-82.9260,75.02,1111122 
COMPS,ioos:station:USF.COMPS:C10:1,2015-07-07T03:55:00Z,27.1690,-82.9260,73.05,1111122 
COMPS,ioos:station:USF.COMPS:C10:1,2015-07-07T04:25:00Z,27.1690,-82.9260,71.3,1111122 
COMPS,ioos:station:USF.COMPS:C10:1,2015-07-07T04:55:00Z,27.1690,-82.9260,70.8,1111122 
COMPS,ioos:station:USF.COMPS:C10:1,2015-07-07T05:25:00Z,27.1690,-82.9260,71.73,1111122 
COMPS,ioos:station:USF.COMPS:C10:1,2015-07-07T05:55:00Z,27.1690,-82.9260,70.68,1111122 
COMPS,ioos:station:USF.COMPS:C10:1,2015-07-07T06:25:00Z,27.1690,-82.9260,72.79,1111122 
COMPS,ioos:station:USF.COMPS:C10:1,2015-07-07T06:55:00Z,27.1690,-82.9260,72.48,1111122 
COMPS,ioos:station:USF.COMPS:C10:1,2015-07-07T12:25:00Z,27.1690,-82.9260,75.52,1111122 
COMPS,ioos:station:USF.COMPS:C10:1,2015-07-07T12:55:00Z,27.1690,-82.9260,80.1,1111122 
COMPS,ioos:station:USF.COMPS:C10:1,2015-07-07T13:25:00Z,27.1690,-82.9260,78.61,1111122 
COMPS,ioos:station:USF.COMPS:C10:1,2015-07-07T13:55:00Z,27.1690,-82.9260,75.87,1111122 
COMPS,ioos:station:USF.COMPS:C10:1,2015-07-07T14:25:00Z,27.1690,-82.9260,70.01,1111122 
COMPS,ioos:station:USF.COMPS:C10:1,2015-07-07T14:55:00Z,27.1690,-82.9260,69.83,1111122 
COMPS,ioos:station:USF.COMPS:C10:1,2015-07-07T15:25:00Z,27.1690,-82.9260,73.05,1111122 
COMPS,ioos:station:USF.COMPS:C10:1,2015-07-07T15:55:00Z,27.1690,-82.9260,72.83,1111122 
COMPS,ioos:station:USF.COMPS:C10:1,2015-07-07T22:25:00Z,27.1690,-82.9260,76.55,1111122 
COMPS,ioos:station:USF.COMPS:C10:1,2015-07-08T00:05:00Z,27.1690,-82.9260,69.57,1111122 
COMPS,ioos:station:USF.COMPS:C10:1,2015-07-08T00:35:00Z,27.1690,-82.9260,71.62,1111122 
COMPS,ioos:station:USF.COMPS:C10:1,2015-07-08T01:05:00Z,27.1690,-82.9260,70.58,1111122 
COMPS,ioos:station:USF.COMPS:C10:1,2015-07-08T01:35:00Z,27.1690,-82.9260,68.58,1111122 
COMPS,ioos:station:USF.COMPS:C10:1,2015-07-08T02:05:00Z,27.1690,-82.9260,68.18,1111122 
COMPS,ioos:station:USF.COMPS:C10:1,2015-07-08T02:35:00Z,27.1690,-82.9260,69.67,1111122 
COMPS,ioos:station:USF.COMPS:C10:1,2015-07-08T04:05:00Z,27.1690,-82.9260,75.08,1111122 
COMPS,ioos:station:USF.COMPS:C10:1,2015-07-08T04:35:00Z,27.1690,-82.9260,67.91,1111122 
COMPS,ioos:station:USF.COMPS:C10:1,2015-07-08T05:05:00Z,27.1690,-82.9260,71.26,1111122 
COMPS,ioos:station:USF.COMPS:C10:1,2015-07-08T05:35:00Z,27.1690,-82.9260,69.49,1111122 
COMPS,ioos:station:USF.COMPS:C10:1,2015-07-08T06:05:00Z,27.1690,-82.9260,72.46,1111122 
COMPS,ioos:station:USF.COMPS:C10:1,2015-07-08T06:35:00Z,27.1690,-82.9260,69.09,1111122 
COMPS,ioos:station:USF.COMPS:C10:1,2015-07-08T07:05:00Z,27.1690,-82.9260,70.23,1111122 
COMPS,ioos:station:USF.COMPS:C10:1,2015-07-08T07:35:00Z,27.1690,-82.9260,70.18,1111122 
COMPS,ioos:station:USF.COMPS:C10:1,2015-07-08T08:05:00Z,27.1690,-82.9260,74.11,1111122 
COMPS,ioos:station:USF.COMPS:C10:1,2015-07-08T08:35:00Z,27.1690,-82.9260,72.28,1111122 
COMPS,ioos:station:USF.COMPS:C10:1,2015-07-08T09:05:00Z,27.1690,-82.9260,74.57,1111122 
COMPS,ioos:station:USF.COMPS:C10:1,2015-07-08T09:35:00Z,27.1690,-82.9260,76.99,1111122 
COMPS,ioos:station:USF.COMPS:C10:1,2015-07-08T10:05:00Z,27.1690,-82.9260,73.81,1111122 
COMPS,ioos:station:USF.COMPS:C10:1,2015-07-08T10:35:00Z,27.1690,-82.9260,74.34,1111122 
COMPS,ioos:station:USF.COMPS:C10:1,2015-07-08T11:05:00Z,27.1690,-82.9260,77.01,1111122 
COMPS,ioos:station:USF.COMPS:C10:1,2015-07-08T11:35:00Z,27.1690,-82.9260,75.16,1111122 
COMPS,ioos:station:USF.COMPS:C10:1,2015-07-08T12:05:00Z,27.1690,-82.9260,78.21,1111122 
COMPS,ioos:station:USF.COMPS:C10:1,2015-07-08T12:35:00Z,27.1690,-82.9260,78.03,1111122 
COMPS,ioos:station:USF.COMPS:C10:1,2015-07-08T13:05:00Z,27.1690,-82.9260,77.27,1111122 
COMPS,ioos:station:USF.COMPS:C10:1,2015-07-08T13:35:00Z,27.1690,-82.9260,81.24,1111122 
COMPS,ioos:station:USF.COMPS:C10:1,2015-07-08T14:05:00Z,27.1690,-82.9260,80.04,1111122 
COMPS,ioos:station:USF.COMPS:C10:1,2015-07-08T14:35:00Z,27.1690,-82.9260,79.67,1111122 
COMPS,ioos:station:USF.COMPS:C10:1,2015-07-08T15:05:00Z,27.1690,-82.9260,78.37,1111122 
COMPS,ioos:station:USF.COMPS:C10:1,2015-07-08T15:35:00Z,27.1690,-82.9260,77.06,1111122 
COMPS,ioos:station:USF.COMPS:C10:1,2015-07-08T16:05:00Z,27.1690,-82.9260,75.33,1111122 
COMPS,ioos:station:USF.COMPS:C10:1,2015-07-08T16:35:00Z,27.1690,-82.9260,71.61,1111122 
COMPS,ioos:station:USF.COMPS:C10:1,2015-07-08T17:05:00Z,27.1690,-82.9260,70.71,1111122 
COMPS,ioos:station:USF.COMPS:C10:1,2015-07-08T17:35:00Z,27.1690,-82.9260,65.84,1111122 
COMPS,ioos:station:USF.COMPS:C10:1,2015-07-08T18:05:00Z,27.1690,-82.9260,68.33,1111122 
COMPS,ioos:station:USF.COMPS:C10:1,2015-07-08T18:35:00Z,27.1690,-82.9260,67.72,1111122 
COMPS,ioos:station:USF.COMPS:C10:1,2015-07-08T19:05:00Z,27.1690,-82.9260,69.68,1111122 
COMPS,ioos:station:USF.COMPS:C10:1,2015-07-08T19:35:00Z,27.1690,-82.9260,68.91,1111122 
COMPS,ioos:station:USF.COMPS:C10:1,2015-07-08T20:05:00Z,27.1690,-82.9260,69.32,1111122 
COMPS,ioos:station:USF.COMPS:C10:1,2015-07-08T20:35:00Z,27.1690,-82.9260,67.53,1111122 
COMPS,ioos:station:USF.COMPS:C10:1,2015-07-08T21:05:00Z,27.1690,-82.9260,69.65,1111122 
COMPS,ioos:station:USF.COMPS:C10:1,2015-07-08T21:35:00Z,27.1690,-82.9260,67.91,1111122 
COMPS,ioos:station:USF.COMPS:C10:1,2015-07-08T22:05:00Z,27.1690,-82.9260,67.24,1111122 
COMPS,ioos:station:USF.COMPS:C10:1,2015-07-08T22:35:00Z,27.1690,-82.9260,66.96,1111122 
COMPS,ioos:station:USF.COMPS:C10:1,2015-07-08T23:05:00Z,27.1690,-82.9260,67.63,1111122 
COMPS,ioos:station:USF.COMPS:C10:1,2015-07-08T23:35:00Z,27.1690,-82.9260,67.9,1111122 
COMPS,ioos:station:USF.COMPS:C10:1,2015-07-09T00:05:00Z,27.1690,-82.9260,68.85,1111122 
COMPS,ioos:station:USF.COMPS:C10:1,2015-07-09T00:35:00Z,27.1690,-82.9260,68.55,1111122 
COMPS,ioos:station:USF.COMPS:C10:1,2015-07-09T01:05:00Z,27.1690,-82.9260,67.93,1111122 
COMPS,ioos:station:USF.COMPS:C10:1,2015-07-09T01:35:00Z,27.1690,-82.9260,75.06,1111122 
COMPS,ioos:station:USF.COMPS:C10:1,2015-07-09T02:05:00Z,27.1690,-82.9260,75.83,1111122 
COMPS,ioos:station:USF.COMPS:C10:1,2015-07-09T02:35:00Z,27.1690,-82.9260,73.9,1111122 
COMPS,ioos:station:USF.COMPS:C10:1,2015-07-09T03:05:00Z,27.1690,-82.9260,74.09,1111122 
COMPS,ioos:station:USF.COMPS:C10:1,2015-07-09T03:35:00Z,27.1690,-82.9260,74.97,1111122 
COMPS,ioos:station:USF.COMPS:C10:1,2015-07-09T04:05:00Z,27.1690,-82.9260,74.16,1111122 
COMPS,ioos:station:USF.COMPS:C10:1,2015-07-09T04:35:00Z,27.1690,-82.9260,73.35,1111122 
COMPS,ioos:station:USF.COMPS:C10:1,2015-07-09T05:05:00Z,27.1690,-82.9260,74.69,1111122 
COMPS,ioos:station:USF.COMPS:C10:1,2015-07-09T05:35:00Z,27.1690,-82.9260,82.2,1111122 
COMPS,ioos:station:USF.COMPS:C10:1,2015-07-09T06:05:00Z,27.1690,-82.9260,75.88,1111122 
COMPS,ioos:station:USF.COMPS:C10:1,2015-07-09T06:35:00Z,27.1690,-82.9260,75.25,1111122 
COMPS,ioos:station:USF.COMPS:C10:1,2015-07-09T07:05:00Z,27.1690,-82.9260,74.03,1111122 
COMPS,ioos:station:USF.COMPS:C10:1,2015-07-09T07:35:00Z,27.1690,-82.9260,74.22,1111122 
COMPS,ioos:station:USF.COMPS:C10:1,2015-07-09T08:05:00Z,27.1690,-82.9260,75.31,1111122 
COMPS,ioos:station:USF.COMPS:C10:1,2015-07-09T08:35:00Z,27.1690,-82.9260,75.62,1111122 
COMPS,ioos:station:USF.COMPS:C10:1,2015-07-09T09:05:00Z,27.1690,-82.9260,74.72,1111122 
COMPS,ioos:station:USF.COMPS:C10:1,2015-07-09T09:35:00Z,27.1690,-82.9260,74.79,1111122 
COMPS,ioos:station:USF.COMPS:C10:1,2015-07-09T10:05:00Z,27.1690,-82.9260,76.04,1111122 
COMPS,ioos:station:USF.COMPS:C10:1,2015-07-09T10:35:00Z,27.1690,-82.9260,77.44,1111122 
COMPS,ioos:station:USF.COMPS:C10:1,2015-07-09T11:05:00Z,27.1690,-82.9260,79.46,1111122 
COMPS,ioos:station:USF.COMPS:C10:1,2015-07-09T11:35:00Z,27.1690,-82.9260,80.5,1111122 
COMPS,ioos:station:USF.COMPS:C10:1,2015-07-09T12:05:00Z,27.1690,-82.9260,81.05,1111122 
COMPS,ioos:station:USF.COMPS:C10:1,2015-07-09T12:35:00Z,27.1690,-82.9260,80.79,1111122 
COMPS,ioos:station:USF.COMPS:C10:1,2015-07-09T13:05:00Z,27.1690,-82.9260,78.24,1111122 
COMPS,ioos:station:USF.COMPS:C10:1,2015-07-09T13:35:00Z,27.1690,-82.9260,77.61,1111122 
COMPS,ioos:station:USF.COMPS:C10:1,2015-07-09T14:05:00Z,27.1690,-82.9260,75.35,1111122 
COMPS,ioos:station:USF.COMPS:C10:1,2015-07-09T14:35:00Z,27.1690,-82.9260,74.89,1111122 
COMPS,ioos:station:USF.COMPS:C10:1,2015-07-09T15:05:00Z,27.1690,-82.9260,72.82,1111122 
COMPS,ioos:station:USF.COMPS:C10:1,2015-07-09T15:35:00Z,27.1690,-82.9260,73.3,1111122 
COMPS,ioos:station:USF.COMPS:C10:1,2015-07-09T16:05:00Z,27.1690,-82.9260,72.07,1111122 
COMPS,ioos:station:USF.COMPS:C10:1,2015-07-09T16:35:00Z,27.1690,-82.9260,71.62,1111122 
COMPS,ioos:station:USF.COMPS:C10:1,2015-07-09T17:05:00Z,27.1690,-82.9260,72.36,1111122 
COMPS,ioos:station:USF.COMPS:C10:1,2015-07-09T17:35:00Z,27.1690,-82.9260,69.4,1111122 
COMPS,ioos:station:USF.COMPS:C10:1,2015-07-09T18:05:00Z,27.1690,-82.9260,65.74,1111122 
COMPS,ioos:station:USF.COMPS:C10:1,2015-07-09T18:35:00Z,27.1690,-82.9260,65.53,1111122 
COMPS,ioos:station:USF.COMPS:C10:1,2015-07-09T19:05:00Z,27.1690,-82.9260,61.98,1111122 
COMPS,ioos:station:USF.COMPS:C10:1,2015-07-09T19:35:00Z,27.1690,-82.9260,62.59,1111122 
COMPS,ioos:station:USF.COMPS:C10:1,2015-07-09T20:05:00Z,27.1690,-82.9260,62.08,1111122 
COMPS,ioos:station:USF.COMPS:C10:1,2015-07-09T20:35:00Z,27.1690,-82.9260,61.12,1111122 
COMPS,ioos:station:USF.COMPS:C10:1,2015-07-09T21:05:00Z,27.1690,-82.9260,63.41,1111122 
COMPS,ioos:station:USF.COMPS:C10:1,2015-07-09T21:35:00Z,27.1690,-82.9260,64.04,1111122 
COMPS,ioos:station:USF.COMPS:C10:1,2015-07-09T22:05:00Z,27.1690,-82.9260,60.03,1111122 
COMPS,ioos:station:USF.COMPS:C10:1,2015-07-09T22:35:00Z,27.1690,-82.9260,57.05,1111122 
COMPS,ioos:station:USF.COMPS:C10:1,2015-07-09T23:05:00Z,27.1690,-82.9260,56.69,1111122 
COMPS,ioos:station:USF.COMPS:C10:1,2015-07-09T23:35:00Z,27.1690,-82.9260,59.05,1111122 
COMPS,ioos:station:USF.COMPS:C10:1,2015-07-10T00:05:00Z,27.1690,-82.9260,57.9,1111122 
COMPS,ioos:station:USF.COMPS:C10:1,2015-07-10T00:35:00Z,27.1690,-82.9260,59.35,1111122 
COMPS,ioos:station:USF.COMPS:C10:1,2015-07-10T01:05:00Z,27.1690,-82.9260,69.25,1111122 
COMPS,ioos:station:USF.COMPS:C10:1,2015-07-10T01:35:00Z,27.1690,-82.9260,75.71,1111122 
COMPS,ioos:station:USF.COMPS:C10:1,2015-07-10T02:05:00Z,27.1690,-82.9260,76.17,1111122 
COMPS,ioos:station:USF.COMPS:C10:1,2015-07-10T02:35:00Z,27.1690,-82.9260,71.5,1111122 
COMPS,ioos:station:USF.COMPS:C10:1,2015-07-10T03:05:00Z,27.1690,-82.9260,63.77,1111122 
COMPS,ioos:station:USF.COMPS:C10:1,2015-07-10T03:35:00Z,27.1690,-82.9260,62.96,1111122 
COMPS,ioos:station:USF.COMPS:C10:1,2015-07-10T04:05:00Z,27.1690,-82.9260,65.68,1111122 
COMPS,ioos:station:USF.COMPS:C10:1,2015-07-10T04:35:00Z,27.1690,-82.9260,69.11,1111122 
COMPS,ioos:station:USF.COMPS:C10:1,2015-07-10T05:05:00Z,27.1690,-82.9260,69.16,1111122 
COMPS,ioos:station:USF.COMPS:C10:1,2015-07-10T05:35:00Z,27.1690,-82.9260,71.35,1111122 
COMPS,ioos:station:USF.COMPS:C10:1,2015-07-10T06:05:00Z,27.1690,-82.9260,71.88,1111122 
COMPS,ioos:station:USF.COMPS:C10:1,2015-07-10T06:35:00Z,27.1690,-82.9260,73.69,1111122 
COMPS,ioos:station:USF.COMPS:C10:1,2015-07-10T07:05:00Z,27.1690,-82.9260,75.75,1111122 
COMPS,ioos:station:USF.COMPS:C10:1,2015-07-10T07:35:00Z,27.1690,-82.9260,73.5,1111122 
COMPS,ioos:station:USF.COMPS:C10:1,2015-07-10T08:05:00Z,27.1690,-82.9260,77.98,1111122 
COMPS,ioos:station:USF.COMPS:C10:1,2015-07-10T08:35:00Z,27.1690,-82.9260,74.89,1111122 
COMPS,ioos:station:USF.COMPS:C10:1,2015-07-10T09:05:00Z,27.1690,-82.9260,73.92,1111122 
COMPS,ioos:station:USF.COMPS:C10:1,2015-07-10T09:35:00Z,27.1690,-82.9260,74.82,1111122 
COMPS,ioos:station:USF.COMPS:C10:1,2015-07-10T10:05:00Z,27.1690,-82.9260,75.59,1111122 
COMPS,ioos:station:USF.COMPS:C10:1,2015-07-10T10:35:00Z,27.1690,-82.9260,72.98,1111122 
COMPS,ioos:station:USF.COMPS:C10:1,2015-07-10T11:05:00Z,27.1690,-82.9260,75.84,1111122 
COMPS,ioos:station:USF.COMPS:C10:1,2015-07-10T11:35:00Z,27.1690,-82.9260,77.54,1111122 
COMPS,ioos:station:USF.COMPS:C10:1,2015-07-10T12:05:00Z,27.1690,-82.9260,78.28,1111122 
COMPS,ioos:station:USF.COMPS:C10:1,2015-07-10T12:35:00Z,27.1690,-82.9260,77.7,1111122 
COMPS,ioos:station:USF.COMPS:C10:1,2015-07-10T13:05:00Z,27.1690,-82.9260,78.04,1111122 
COMPS,ioos:station:USF.COMPS:C10:1,2015-07-10T13:35:00Z,27.1690,-82.9260,79.72,1111122 
COMPS,ioos:station:USF.COMPS:C10:1,2015-07-10T14:05:00Z,27.1690,-82.9260,78.59,1111122 
COMPS,ioos:station:USF.COMPS:C10:1,2015-07-10T14:35:00Z,27.1690,-82.9260,74.66,1111122 
COMPS,ioos:station:USF.COMPS:C10:1,2015-07-10T15:05:00Z,27.1690,-82.9260,75.75,1111122 
COMPS,ioos:station:USF.COMPS:C10:1,2015-07-10T15:35:00Z,27.1690,-82.9260,72.12,1111122 
COMPS,ioos:station:USF.COMPS:C10:1,2015-07-10T16:05:00Z,27.1690,-82.9260,69.07,1111122 
COMPS,ioos:station:USF.COMPS:C10:1,2015-07-10T16:35:00Z,27.1690,-82.9260,66.86,1111122 
COMPS,ioos:station:USF.COMPS:C10:1,2015-07-10T17:05:00Z,27.1690,-82.9260,66.61,1111122 
COMPS,ioos:station:USF.COMPS:C10:1,2015-07-10T17:35:00Z,27.1690,-82.9260,64.74,1111122 
COMPS,ioos:station:USF.COMPS:C10:1,2015-07-10T18:05:00Z,27.1690,-82.9260,65.61,1111122 
COMPS,ioos:station:USF.COMPS:C10:1,2015-07-10T18:35:00Z,27.1690,-82.9260,63.33,1111122 
COMPS,ioos:station:USF.COMPS:C10:1,2015-07-10T19:05:00Z,27.1690,-82.9260,64.46,1111122 
COMPS,ioos:station:USF.COMPS:C10:1,2015-07-10T19:35:00Z,27.1690,-82.9260,66.09,1111122 
COMPS,ioos:station:USF.COMPS:C10:1,2015-07-10T20:05:00Z,27.1690,-82.9260,65.53,1111122 
COMPS,ioos:station:USF.COMPS:C10:1,2015-07-10T20:35:00Z,27.1690,-82.9260,63.07,1111122 
COMPS,ioos:station:USF.COMPS:C10:1,2015-07-10T21:05:00Z,27.1690,-82.9260,64.86,1111122 
COMPS,ioos:station:USF.COMPS:C10:1,2015-07-10T21:35:00Z,27.1690,-82.9260,64.34,1111122 